Regional Weather Roundup
Issued by NWS Green Bay, WI

Home | Current Version | Previous Version | Graphics & Text | Print | Product List | Glossary Off
Versions: 1 2 3 4 5 6 7 8 9 10 11 12 13 14 15 16 17 18 19 20 21 22 23 24 25 26 27 28 29 30 31 32 33 34 35 36 37 38 39 40 41 42 43 44 45 46 47 48 49 50

000
ASUS43 KGRB 161811
RWRGRB

NORTH-CENTRAL AND NORTHEAST WISCONSIN REGIONAL WEATHER ROUNDUP
NATIONAL WEATHER SERVICE GREEN BAY WI
1200 PM CST SAT DEC 16 2017

WIZ005-009-010>012-018-019-161900-
NORTH CENTRAL WISCONSIN

CITY           SKY/WX    TMP DP  RH WIND       PRES   REMARKS
IRONWOOD       CLOUDY    19   9  65 SE7       29.95S WCI  10
MANITOWISH WTR CLOUDY    17   7  64 E6        29.93R WCI   8
ARBOR VITAE    CLOUDY    19  10  66 SE7       29.92R
EAGLE RIVER    CLOUDY    17   6  61 E7        29.91F WCI   8
LAND O LAKES   CLOUDY    18   6  59 E7        29.94R WCI   8
RHINELANDER    CLOUDY    16   8  71 E8        29.93S WCI   5
PHILLIPS       CLOUDY    15   8  71 E5        29.93R WCI   8
ANTIGO         CLOUDY    16   9  74 E10       29.93S WCI   4
TOMAHAWK       CLOUDY    17   9  69 NE3       29.94R
MERRILL        CLOUDY    19   9  65 E7        29.93S WCI   9
$$

WIZ013-073-161900-
NORTHEAST WISCONSIN

CITY           SKY/WX    TMP DP  RH WIND       PRES   REMARKS
IRON MOUNTAIN  MOSUNNY   18   8  65 E5        29.97F
MARINETTE      CLOUDY    24  18  77 NE8       30.00S
OCONTO         CLOUDY    22  13  70 N5        30.00R
$$

WIZ017-030-035>037-045-161900-
CENTRAL WISCONSIN

CITY           SKY/WX    TMP DP  RH WIND       PRES   REMARKS
MEDFORD        CLOUDY    18   8  63 E7        29.91R WCI   9
WAUSAU         CLOUDY    19  11  70 E10       29.92R WCI   7
MOSINEE        CLOUDY    19  12  73 E6        29.94R
MARSHFIELD     CLOUDY    20  14  77 E10       29.90R WCI   9
WISC RAPIDS    CLOUDY    21  15  78 E10       29.95R WCI  10
STEVENS POINT  CLOUDY    19  14  80 E7        29.94R WCI  10
WAUPACA        CLOUDY    25  16  69 NE3       29.96R
SHAWANO        CLOUDY    23  14  68 NE6       29.97S
CLINTONVILLE   NOT AVBL
WAUTOMA        CLOUDY    24  19  81 E8        29.93R
$$

WIZ038-039-048-051-161900-
FOX VALLEY

CITY           SKY/WX    TMP DP  RH WIND       PRES   REMARKS
NWS GREEN BAY  CLOUDY    25  17  72 NE14      29.95S
APPLETON       CLOUDY    23  14  68 E9        29.92R
OSHKOSH        CLOUDY    27  23  85 NE10      29.93R
FOND DU LAC    CLOUDY    30  24  78 E8        29.91S
$$

WIZ022-050-052-161900-
EAST CENTRAL WISCONSIN

CITY           SKY/WX    TMP DP  RH WIND       PRES   REMARKS
EPHRAIM        CLOUDY    25  20  82 E7        29.97S
WASHINGTON ISL FLURRIES  24  18  79 E9        30.00R
STURGEON BAY   CLOUDY    28  18  66 NE7       29.98R
MANITOWOC      CLOUDY    29  24  82 E9        29.94F
SHEBOYGAN      CLOUDY    29  25  85 E12       29.92F
$$

LMZ563-521-522-541>543-161900-
LAKESHORE

STATION/POSITION TIME  TEMP    WIND        PRES    VSBY  WAVE
                       AIR SEA DIR/SP/G                  HT/PER
                 (UTC) (F)     (DEG/KT/KT) (MB)    (MI)  (FT/S)
SHEBOYGAN LKSHOR 1800   30      60/ 16/ 17 1014.0F
KEWAUNEE LKSHORE 1748   29      70/  6/ 10 1013.8R
NORTHPORT PIER   1740   26      90/ 16/ 19 1015.6S
SISTER BAY LKSHO 1720   26      10/  6/  8   N/A
MENOMINEE LKSHOR 1748   26      20/ 14/ 20 1015.2R
$$



USA.gov is the U.S. government's official web portal to all federal, state and local government web resources and services.